EW9957 Weather Reports


Display with metric or nautical units.
time (UTC)temp
F
wind
direction
speed
MPH
gust
MPH
rain 1hr
in
rain 24hr
in
rain mn
in
humidity
%
barometer
mb
20260507111054 56 37 2.0 3.0 0.00 0.00 0.00 88 1017.3
20260507110551 56 36 1.0 3.0 0.00 0.00 0.00 88 1017.3
20260507110053 56 35 1.0 3.0 0.00 0.00 0.00 88 1017.2
20260507105547 56 36 0.0 3.0 0.00 0.00 0.00 87 1017.4
20260507105023 56 38 1.0 3.0 0.00 0.00 0.00 88 1017.4
20260507104546 56 38 2.0 3.0 0.00 0.00 0.00 88 1017.3
20260507104021 56 36 1.0 2.0 0.00 0.00 0.00 88 1017.3
20260507103536 56 32 1.0 3.0 0.00 0.00 0.00 88 1017.4
20260507103100 56 37 1.0 4.0 0.00 0.00 0.00 88 1017.5
20260507102553 56 34 1.0 4.0 0.00 0.00 0.00 88 1017.5
20260507102047 56 38 2.0 3.0 0.00 0.00 0.00 88 1017.4
20260507101529 56 36 2.0 3.0 0.00 0.00 0.00 87 1017.4
20260507101024 56 38 1.0 3.0 0.00 0.00 0.00 87 1017.5
20260507100620 56 35 2.0 3.0 0.00 0.00 0.00 87 1017.5
20260507100026 56 35 2.0 3.0 0.00 0.00 0.00 87 1017.5
20260507095603 56 36 1.0 3.0 0.00 0.00 0.00 87 1017.6
20260507095521 56 36 1.0 3.0 0.00 0.00 0.00 87 1017.6
20260507095113 56 35 1.0 3.0 0.00 0.00 0.00 86 1017.6
20260507094516 57 37 2.0 3.0 0.00 0.00 0.00 87 1017.6
20260507094032 56 36 1.0 2.0 0.00 0.00 0.00 87 1017.7
20260507093526 56 35 1.0 2.0 0.00 0.00 0.00 87 1017.9
20260507093106 56 38 0.0 2.0 0.00 0.00 0.00 87 1017.9
20260507093023 56 38 0.0 2.0 0.00 0.00 0.00 87 1017.9
20260507092523 56 36 1.0 2.0 0.00 0.00 0.00 88 1017.9
20260507092017 56 36 0.0 2.0 0.00 0.00 0.00 87 1017.9
20260507091540 56 35 0.0 0.0 0.00 0.00 0.00 88 1017.9
20260507091035 56 32 0.0 0.0 0.00 0.00 0.00 88 1018.0
20260507090551 56 37 0.0 0.0 0.00 0.00 0.00 87 1018.0
20260507090052 56 35 0.0 0.0 0.00 0.00 0.00 87 1018.0
20260507085603 56 36 0.0 0.0 0.00 0.00 0.00 87 1018.0
20260507085520 56 36 0.0 0.0 0.00 0.00 0.00 87 1018.0
20260507085115 56 35 0.0 1.0 0.00 0.00 0.00 87 1018.1
20260507084537 56 35 0.0 1.0 0.00 0.00 0.00 87 1018.2
20260507084031 57 36 0.0 2.0 0.00 0.00 0.00 87 1018.2
20260507083531 57 35 0.0 3.0 0.00 0.00 0.00 87 1018.3
20260507083031 57 38 1.0 3.0 0.00 0.00 0.00 87 1018.3
20260507082526 57 36 0.0 2.0 0.00 0.00 0.00 86 1018.2
20260507082103 57 38 0.0 2.0 0.00 0.00 0.00 86 1018.3
20260507082020 57 38 0.0 2.0 0.00 0.00 0.00 86 1018.3
20260507081523 57 35 1.0 2.0 0.00 0.00 0.00 87 1018.4
20260507081040 57 36 1.0 2.0 0.00 0.00 0.00 87 1018.4
20260507080535 57 36 0.0 0.0 0.00 0.00 0.00 87 1018.5
20260507080056 57 35 0.0 0.0 0.00 0.00 0.00 87 1018.5
20260507075606 57 38 0.0 0.0 0.00 0.00 0.00 86 1018.5
20260507075524 57 38 0.0 0.0 0.00 0.00 0.00 86 1018.5
20260507075040 58 35 0.0 0.0 0.00 0.00 0.00 86 1018.6
20260507074614 58 36 0.0 0.0 0.00 0.00 0.00 87 1018.6
20260507074532 58 36 0.0 0.0 0.00 0.00 0.00 87 1018.6
20260507074047 57 37 0.0 0.0 0.00 0.00 0.00 86 1018.6
20260507073520 57 37 0.0 0.0 0.00 0.00 0.00 86 1018.7
20260507073044 57 35 0.0 0.0 0.00 0.00 0.00 85 1018.7
20260507072518 57 35 0.0 0.0 0.00 0.00 0.00 86 1018.7
20260507072053 57 38 0.0 0.0 0.00 0.00 0.00 85 1018.8
20260507071533 58 35 0.0 0.0 0.00 0.00 0.00 86 1018.8
20260507071107 58 38 0.0 0.0 0.00 0.00 0.00 86 1018.7
20260507070601 57 35 0.0 0.0 0.00 0.00 0.00 85 1018.8
20260507070020 58 36 0.0 0.0 0.00 0.00 0.00 85 1018.7
20260507065516 58 36 0.0 2.0 0.00 0.00 0.00 85 1018.7
20260507065051 58 35 0.0 2.0 0.00 0.00 0.00 85 1018.6
20260507064552 58 35 1.0 2.0 0.00 0.00 0.00 85 1018.7
20260507064107 58 38 0.0 0.0 0.00 0.00 0.00 85 1018.7
20260507064025 58 38 0.0 0.0 0.00 0.00 0.00 85 1018.7
20260507063541 59 36 0.0 1.0 0.00 0.00 0.00 85 1018.7
20260507063023 58 36 0.0 2.0 0.00 0.00 0.00 85 1018.7
20260507062518 58 36 0.0 2.0 0.00 0.00 0.00 85 1018.8
20260507062053 58 38 1.0 2.0 0.00 0.00 0.00 85 1018.7
20260507061514 58 34 0.0 1.0 0.00 0.00 0.00 83 1018.8
20260507061109 58 35 0.0 1.0 0.00 0.00 0.00 84 1018.8
20260507060542 58 38 0.0 0.0 0.00 0.00 0.00 83 1018.8
20260507060106 59 34 0.0 0.0 0.00 0.00 0.00 82 1018.9
20260507055519 59 37 0.0 0.0 0.00 0.00 0.00 83 1018.9
20260507055037 59 36 0.0 0.0 0.00 0.00 0.00 82 1018.9
20260507054518 59 36 0.0 0.0 0.00 0.00 0.00 82 1018.8
20260507054035 59 35 0.0 1.0 0.00 0.00 0.00 81 1018.9
20260507053611 60 34 0.0 2.0 0.00 0.00 0.00 81 1018.9
20260507053529 60 34 0.0 2.0 0.00 0.00 0.00 81 1018.9
20260507053050 60 34 0.0 1.0 0.00 0.00 0.00 81 1018.8
20260507052605 60 38 0.0 0.0 0.00 0.00 0.00 82 1018.7
20260507052523 60 38 0.0 0.0 0.00 0.00 0.00 82 1018.7
20260507052018 60 38 0.0 0.0 0.00 0.00 0.00 81 1018.8
20260507051542 60 35 0.0 0.0 0.00 0.00 0.00 81 1018.7
20260507051017 60 35 0.0 0.0 0.00 0.00 0.00 82 1018.8
20260507050612 61 38 0.0 2.0 0.00 0.00 0.00 82 1018.8
20260507050529 61 38 0.0 2.0 0.00 0.00 0.00 82 1018.8
20260507050032 61 36 0.0 1.0 0.00 0.00 0.00 82 1018.7
20260507045528 60 36 0.0 3.0 0.00 0.00 0.00 83 1018.7
20260507045045 60 38 2.0 3.0 0.00 0.00 0.00 83 1018.6
20260507044546 60 38 2.0 3.0 0.00 0.00 0.00 82 1018.7
20260507044040 61 38 1.0 3.0 0.00 0.00 0.00 82 1018.7
20260507043556 61 36 0.0 4.0 0.00 0.00 0.00 82 1018.7
20260507043513 61 36 0.0 4.0 0.00 0.00 0.00 82 1018.7
20260507043036 61 35 2.0 4.0 0.00 0.00 0.00 83 1018.7
20260507042551 61 36 3.0 6.0 0.00 0.00 0.00 83 1018.7
20260507042047 61 37 3.0 7.0 0.00 0.00 0.00 84 1018.7
20260507041527 61 32 4.0 7.0 0.00 0.00 0.00 84 1018.6
20260507041023 61 36 4.0 5.0 0.00 0.00 0.00 83 1018.6
20260507040558 61 38 3.0 5.0 0.00 0.00 0.00 83 1018.6
20260507040100 61 35 3.0 5.0 0.00 0.00 0.00 82 1018.6
20260507040018 61 35 3.0 5.0 0.00 0.00 0.00 82 1018.6
20260507035514 61 36 3.0 5.0 0.00 0.00 0.00 82 1018.5
20260507035013 61 38 3.0 4.0 0.00 0.00 0.00 82 1018.5
20260507034515 61 38 3.0 6.0 0.00 0.00 0.00 82 1018.4
20260507034031 61 38 4.0 6.0 0.00 0.00 0.00 82 1018.4
20260507033548 61 36 3.0 6.0 0.00 0.00 0.00 82 1018.4
20260507033030 62 36 4.0 5.0 0.00 0.00 0.00 81 1018.3
20260507032547 62 35 3.0 5.0 0.00 0.00 0.00 81 1018.3
20260507032043 62 36 4.0 5.0 0.00 0.00 0.00 79 1018.2
20260507031607 62 35 3.0 4.0 0.00 0.00 0.00 79 1018.1
20260507031056 62 36 2.0 5.0 0.00 0.00 0.00 79 1018.1
20260507031014 62 36 2.0 5.0 0.00 0.00 0.00 79 1018.1
20260507030609 62 37 3.0 6.0 0.00 0.00 0.00 78 1018.1
20260507030527 62 37 3.0 6.0 0.00 0.00 0.00 78 1018.1
20260507030048 63 38 4.0 6.0 0.00 0.00 0.00 78 1018.1
20260507025522 63 36 4.0 6.0 0.00 0.00 0.00 77 1018.1
20260507025039 63 35 3.0 7.0 0.00 0.00 0.00 77 1018.0
20260507024521 63 35 4.0 7.0 0.00 0.00 0.00 76 1017.9
20260507024057 63 36 5.0 7.0 0.00 0.00 0.00 75 1017.9
20260507024014 63 36 5.0 7.0 0.00 0.00 0.00 75 1017.9
20260507023550 63 36 4.0 7.0 0.00 0.00 0.00 74 1017.8
20260507023032 63 35 4.0 8.0 0.00 0.00 0.00 74 1017.8
20260507022549 64 35 3.0 5.0 0.00 0.00 0.00 73 1017.7
20260507022104 64 34 3.0 7.0 0.00 0.00 0.00 72 1017.7
20260507022021 64 34 3.0 7.0 0.00 0.00 0.00 72 1017.7
20260507021607 64 35 5.0 8.0 0.00 0.00 0.00 71 1017.7
20260507021524 64 35 5.0 8.0 0.00 0.00 0.00 71 1017.7
20260507021059 64 35 5.0 8.0 0.00 0.00 0.00 71 1017.6
20260507020613 65 34 6.0 9.0 0.00 0.00 0.00 68 1017.6
20260507020530 65 34 6.0 9.0 0.00 0.00 0.00 68 1017.6
20260507020035 65 34 5.0 10.0 0.00 0.00 0.00 66 1017.6
20260507015548 65 36 5.0 10.0 0.00 0.00 0.00 67 1017.5
20260507015022 65 36 4.0 12.0 0.00 0.00 0.00 67 1017.6
20260507014607 65 36 9.0 12.0 0.00 0.00 0.00 66 1017.5
20260507014020 65 36 5.0 12.0 0.00 0.00 0.00 66 1017.5
20260507013555 65 35 7.0 12.0 0.00 0.00 0.00 66 1017.5
20260507013015 65 34 7.0 11.0 0.00 0.00 0.00 66 1017.5
20260507012552 65 36 8.0 11.0 0.00 0.00 0.00 66 1017.5
20260507012046 65 35 6.0 9.0 0.00 0.00 0.00 66 1017.5
20260507011525 65 35 7.0 13.0 0.00 0.00 0.00 66 1017.5
20260507010517 66 35 6.0 12.0 0.00 0.00 0.00 65 1017.5
20260507010111 65 35 7.0 13.0 0.00 0.00 0.00 65 1017.4
20260507010028 65 35 7.0 13.0 0.00 0.00 0.00 65 1017.4
20260507005523 66 34 9.0 13.0 0.00 0.00 0.00 64 1017.4
20260507005059 66 35 6.0 13.0 0.00 0.00 0.00 65 1017.4
20260507005016 66 35 6.0 13.0 0.00 0.00 0.00 65 1017.4
20260507004541 66 35 10.0 12.0 0.00 0.00 0.00 64 1017.4
20260507004017 66 35 7.0 15.0 0.00 0.00 0.00 63 1017.4
20260507003553 66 34 9.0 15.0 0.00 0.00 0.00 66 1017.3
20260507003015 66 36 7.0 14.0 0.00 0.00 0.00 66 1017.4
20260507002550 66 37 10.0 14.0 0.00 0.00 0.00 67 1017.3
20260507002024 66 35 9.0 14.0 0.00 0.00 0.00 67 1017.3
20260507001526 66 34 8.0 14.0 0.00 0.00 0.00 67 1017.3
20260507001103 66 35 8.0 15.0 0.00 0.00 0.00 68 1017.2
20260507001020 66 35 8.0 15.0 0.00 0.00 0.00 68 1017.2
20260507000515 66 36 10.0 15.0 0.00 0.00 0.00 68 1017.2
20260507000059 67 36 7.0 12.0 0.00 0.00 0.00 67 1017.1
20260506235532 66 36 8.0 12.0 0.00 0.00 0.00 68 1017.1
20260506235107 67 38 8.0 12.0 0.00 0.00 0.00 66 1017.0
20260506234547 67 34 9.0 14.0 0.00 0.00 0.00 66 1017.1
20260506234043 67 35 7.0 15.0 0.00 0.00 0.00 66 1017.0
20260506233517 67 34 10.0 15.0 0.00 0.00 0.00 61 1017.1
20260506233020 67 36 7.0 13.0 0.00 0.00 0.00 64 1017.0
20260506232535 68 36 8.0 14.0 0.00 0.00 0.00 63 1017.1
20260506232030 67 32 8.0 15.0 0.00 0.00 0.00 66 1017.2
20260506231551 66 36 8.0 15.0 0.00 0.00 0.00 67 1017.2
20260506231048 66 36 9.0 15.0 0.00 0.00 0.00 67 1017.3
20260506230523 67 35 10.0 14.0 0.00 0.00 0.00 65 1017.2
20260506230045 66 34 10.0 17.0 0.00 0.00 0.00 68 1017.2
20260506225600 67 34 9.0 15.0 0.00 0.00 0.00 66 1017.3
20260506225518 67 34 9.0 15.0 0.00 0.00 0.00 66 1017.3
20260506225112 67 35 7.0 15.0 0.00 0.00 0.00 67 1017.3
20260506224513 66 36 9.0 16.0 0.00 0.00 0.00 68 1017.3
20260506224108 67 34 9.0 16.0 0.00 0.00 0.00 67 1017.5
20260506223601 66 37 11.0 17.0 0.00 0.00 0.00 68 1017.4
20260506223113 67 34 13.0 17.0 0.00 0.00 0.00 67 1017.5
20260506222607 66 36 10.0 16.0 0.00 0.00 0.00 67 1017.5
20260506222524 66 36 10.0 16.0 0.00 0.00 0.00 67 1017.5
20260506222019 66 36 11.0 15.0 0.00 0.00 0.00 67 1017.6
20260506221604 67 36 10.0 18.0 0.00 0.00 0.00 66 1017.6
20260506221017 66 34 10.0 18.0 0.00 0.00 0.00 67 1017.6
20260506220513 66 35 12.0 17.0 0.00 0.00 0.00 67 1017.7
20260506220057 67 35 8.0 18.0 0.00 0.00 0.00 67 1017.7
20260506215531 67 37 9.0 18.0 0.00 0.00 0.00 67 1017.7
20260506215049 68 35 8.0 15.0 0.00 0.00 0.00 66 1017.7
20260506214552 67 36 10.0 19.0 0.00 0.00 0.00 66 1017.8
20260506214026 67 35 12.0 19.0 0.00 0.00 0.00 66 1017.9
20260506213601 67 35 12.0 19.0 0.00 0.00 0.00 66 1017.9
20260506213021 67 34 10.0 17.0 0.00 0.00 0.00 65 1017.9
20260506212517 68 36 10.0 16.0 0.00 0.00 0.00 66 1018.0
20260506212112 67 32 9.0 17.0 0.00 0.00 0.00 67 1018.0
20260506211532 67 34 13.0 17.0 0.00 0.00 0.00 65 1018.0
20260506211048 67 34 10.0 17.0 0.00 0.00 0.00 65 1018.1
20260506210523 68 36 11.0 17.0 0.00 0.00 0.00 64 1018.1
20260506210024 67 35 8.0 16.0 0.00 0.00 0.00 66 1018.0
20260506205519 68 35 7.0 16.0 0.00 0.00 0.00 65 1018.1
20260506205055 67 34 10.0 17.0 0.00 0.00 0.00 64 1018.2
20260506204537 66 37 13.0 17.0 0.00 0.00 0.00 65 1018.2
20260506204052 68 36 7.0 15.0 0.00 0.00 0.00 63 1018.2
20260506203607 67 34 9.0 15.0 0.00 0.00 0.00 65 1018.2
20260506203524 67 34 9.0 15.0 0.00 0.00 0.00 65 1018.2
20260506203108 68 36 9.0 14.0 0.00 0.00 0.00 63 1018.3
20260506202521 67 34 8.0 21.0 0.00 0.00 0.00 65 1018.3
20260506202038 67 35 10.0 17.0 0.00 0.00 0.00 64 1018.3
20260506201540 66 37 10.0 15.0 0.00 0.00 0.00 65 1018.4
20260506201034 66 35 10.0 16.0 0.00 0.00 0.00 65 1018.4
20260506200548 67 32 9.0 16.0 0.00 0.00 0.00 64 1018.4
20260506200111 67 36 11.0 16.0 0.00 0.00 0.00 64 1018.4
20260506200029 67 36 11.0 16.0 0.00 0.00 0.00 64 1018.4
20260506195524 67 35 10.0 16.0 0.00 0.00 0.00 64 1018.5
20260506195039 66 36 11.0 16.0 0.00 0.00 0.00 63 1018.6
20260506194541 67 34 11.0 16.0 0.00 0.00 0.00 62 1018.6
20260506194015 68 35 10.0 16.0 0.00 0.00 0.00 62 1018.6
20260506193512 68 34 8.0 14.0 0.00 0.00 0.00 61 1018.7
20260506193016 68 34 10.0 14.0 0.00 0.00 0.00 61 1018.7
20260506192553 68 36 8.0 13.0 0.00 0.00 0.00 61 1018.8
20260506192107 69 32 8.0 14.0 0.00 0.00 0.00 60 1018.7
20260506191546 69 35 8.0 14.0 0.00 0.00 0.00 59 1018.7
20260506191021 68 36 9.0 14.0 0.00 0.00 0.00 59 1018.8
20260506190516 68 34 7.0 13.0 0.00 0.00 0.00 59 1018.7
20260506190101 68 36 6.0 13.0 0.00 0.00 0.00 59 1018.8
20260506185513 68 34 6.0 13.0 0.00 0.00 0.00 61 1018.8
20260506185028 67 34 10.0 13.0 0.00 0.00 0.00 60 1019.0
20260506184530 68 38 2.0 10.0 0.00 0.00 0.00 58 1018.9
20260506184045 67 34 6.0 13.0 0.00 0.00 0.00 59 1019.0
20260506183539 68 35 6.0 13.0 0.00 0.00 0.00 58 1019.0
20260506183113 67 37 3.0 12.0 0.00 0.00 0.00 59 1019.1
20260506182607 67 32 3.0 12.0 0.00 0.00 0.00 58 1019.1
20260506182524 67 32 3.0 12.0 0.00 0.00 0.00 58 1019.1
20260506182041 68 36 4.0 10.0 0.00 0.00 0.00 57 1019.1
20260506181605 69 35 4.0 10.0 0.00 0.00 0.00 57 1019.2
20260506181523 69 35 4.0 10.0 0.00 0.00 0.00 57 1019.2
20260506181039 68 32 3.0 12.0 0.00 0.00 0.00 58 1019.3
20260506180555 66 34 8.0 13.0 0.00 0.00 0.00 59 1019.3
20260506180512 66 34 8.0 13.0 0.00 0.00 0.00 59 1019.3
20260506180012 66 34 4.0 13.0 0.00 0.00 0.00 60 1019.3
20260506175528 66 34 7.0 10.0 0.00 0.00 0.00 60 1019.4
20260506175024 65 32 1.0 7.0 0.00 0.00 0.00 62 1019.4
20260506174547 65 36 4.0 10.0 0.00 0.00 0.00 62 1019.5
20260506174102 65 34 4.0 11.0 0.00 0.00 0.00 62 1019.5
20260506173534 65 36 6.0 11.0 0.00 0.00 0.00 62 1019.5
20260506173034 65 36 4.0 12.0 0.00 0.00 0.00 62 1019.5
20260506172549 64 34 8.0 12.0 0.00 0.00 0.00 63 1019.6
20260506172023 64 35 1.0 8.0 0.00 0.00 0.00 64 1019.6
20260506171547 64 34 4.0 8.0 0.00 0.00 0.00 63 1019.7
20260506171041 64 35 3.0 10.0 0.00 0.00 0.00 65 1019.7
20260506170515 63 36 6.0 10.0 0.00 0.00 0.00 65 1019.6
20260506170059 63 35 3.0 10.0 0.00 0.00 0.00 67 1019.7
20260506170017 63 35 3.0 10.0 0.00 0.00 0.00 67 1019.7
20260506165533 63 35 3.0 10.0 0.00 0.00 0.00 66 1019.7
20260506165105 63 34 4.0 10.0 0.00 0.00 0.00 67 1019.8
20260506165022 63 34 4.0 10.0 0.00 0.00 0.00 67 1019.8
20260506164528 62 35 3.0 7.0 0.00 0.00 0.00 66 1019.7
20260506164044 62 36 3.0 10.0 0.00 0.00 0.00 68 1019.8
20260506163519 63 37 5.0 9.0 0.00 0.00 0.00 68 1019.8
20260506163041 62 38 1.0 7.0 0.00 0.00 0.00 68 1019.8
20260506162615 61 36 3.0 7.0 0.00 0.00 0.00 70 1019.8
20260506162047 61 35 2.0 6.0 0.00 0.00 0.00 69 1019.7
20260506161607 61 37 4.0 7.0 0.00 0.00 0.00 69 1019.7
20260506161524 61 37 4.0 7.0 0.00 0.00 0.00 69 1019.7
20260506161100 61 36 3.0 8.0 0.00 0.00 0.00 69 1019.7
20260506161017 61 36 3.0 8.0 0.00 0.00 0.00 69 1019.7
20260506160612 61 35 4.0 8.0 0.00 0.00 0.00 72 1019.7
20260506160530 61 35 4.0 8.0 0.00 0.00 0.00 72 1019.7
20260506160053 60 38 2.0 3.0 0.00 0.00 0.00 72 1019.7
20260506155547 60 36 0.0 4.0 0.00 0.00 0.00 73 1019.6
20260506155021 60 34 2.0 4.0 0.00 0.00 0.00 74 1019.6
20260506154605 59 36 2.0 4.0 0.00 0.00 0.00 74 1019.6
20260506154523 59 36 2.0 4.0 0.00 0.00 0.00 74 1019.6
20260506154019 60 36 2.0 3.0 0.00 0.00 0.00 74 1019.8
20260506153537 60 35 0.0 3.0 0.00 0.00 0.00 74 1019.7
20260506153018 59 36 0.0 2.0 0.00 0.00 0.00 75 1019.7
20260506152613 59 35 1.0 4.0 0.00 0.00 0.00 75 1019.7
20260506152046 59 34 1.0 4.0 0.00 0.00 0.00 76 1019.6
20260506151547 59 34 1.0 4.0 0.00 0.00 0.00 76 1019.7
20260506151021 59 36 1.0 4.0 0.00 0.00 0.00 77 1019.7
20260506150616 58 38 1.0 4.0 0.00 0.00 0.00 77 1019.7
20260506150016 58 35 2.0 4.0 0.00 0.00 0.00 79 1019.8
20260506145612 57 35 1.0 6.0 0.00 0.00 0.00 79 1019.8
20260506145529 57 35 1.0 6.0 0.00 0.00 0.00 79 1019.8
20260506145046 57 34 2.0 8.0 0.00 0.00 0.00 80 1019.8
20260506144548 56 36 3.0 6.0 0.00 0.00 0.00 80 1019.8
20260506144043 56 38 3.0 8.0 0.00 0.00 0.00 81 1019.7
20260506143517 55 38 3.0 6.0 0.00 0.00 0.00 82 1019.6
20260506143020 55 35 3.0 6.0 0.00 0.00 0.00 82 1019.6
20260506142555 55 35 4.0 7.0 0.00 0.00 0.00 82 1019.5
20260506142031 54 36 4.0 8.0 0.00 0.00 0.00 83 1019.5
20260506141532 54 35 3.0 7.0 0.00 0.00 0.00 84 1019.4
20260506141048 54 34 2.0 6.0 0.00 0.00 0.00 84 1019.4
20260506140602 53 36 3.0 6.0 0.00 0.00 0.00 85 1019.3
20260506140520 53 36 3.0 6.0 0.00 0.00 0.00 85 1019.3
20260506140105 53 38 2.0 6.0 0.00 0.00 0.00 85 1019.4
20260506135558 53 36 2.0 6.0 0.00 0.01 0.00 86 1019.3
20260506135516 53 36 2.0 6.0 0.00 0.01 0.00 86 1019.3
20260506135031 53 35 4.0 6.0 0.00 0.01 0.00 86 1019.3
20260506134536 53 38 4.0 6.0 0.00 0.01 0.00 86 1019.3
20260506134050 52 35 4.0 8.0 0.00 0.01 0.00 86 1019.3
20260506133604 52 34 4.0 8.0 0.00 0.01 0.00 86 1019.2
20260506133522 52 34 4.0 8.0 0.00 0.01 0.00 86 1019.2
20260506133025 52 35 4.0 6.0 0.00 0.01 0.00 86 1019.2
20260506132521 52 32 4.0 7.0 0.00 0.01 0.00 86 1019.1
20260506132037 52 32 3.0 6.0 0.00 0.01 0.00 86 1019.1
20260506131601 52 36 3.0 6.0 0.00 0.01 0.00 86 1019.1
20260506131054 52 35 3.0 6.0 0.00 0.01 0.00 86 1019.0
20260506130608 52 34 3.0 6.0 0.00 0.01 0.00 86 1018.9
20260506130525 52 34 3.0 6.0 0.00 0.01 0.00 86 1018.9
20260506130047 52 36 4.0 6.0 0.00 0.01 0.00 86 1018.9
20260506125602 52 38 4.0 8.0 0.00 0.05 0.00 86 1018.9
20260506125519 52 38 4.0 8.0 0.00 0.05 0.00 86 1018.9
20260506125036 52 37 5.0 8.0 0.00 0.05 0.00 86 1018.8
20260506124557 52 34 5.0 8.0 0.00 0.05 0.00 86 1018.9
20260506124107 52 36 4.0 8.0 0.00 0.05 0.00 86 1018.8
20260506123546 53 38 4.0 8.0 0.00 0.05 0.00 86 1018.7
20260506123106 53 36 4.0 8.0 0.00 0.05 0.00 86 1018.7
20260506123024 53 36 4.0 8.0 0.00 0.05 0.00 86 1018.7
20260506122539 53 35 3.0 5.0 0.00 0.05 0.00 86 1018.7
20260506122113 53 38 3.0 5.0 0.00 0.05 0.00 85 1018.7
20260506121532 53 35 3.0 5.0 0.00 0.05 0.00 85 1018.6
20260506121108 53 35 2.0 5.0 0.00 0.05 0.00 85 1018.7
20260506120541 53 37 3.0 5.0 0.00 0.05 0.00 85 1018.7
20260506120022 54 37 2.0 4.0 0.00 0.05 0.00 85 1018.7
20260506115538 54 37 2.0 3.0 0.00 0.08 0.00 86 1018.7
20260506115111 53 36 2.0 3.0 0.00 0.08 0.00 86 1018.7
20260506114551 53 36 0.0 0.0 0.00 0.08 0.00 86 1018.6
20260506114025 53 34 0.0 2.0 0.00 0.08 0.00 86 1018.6
20260506113541 53 37 0.0 3.0 0.00 0.08 0.00 85 1018.6
20260506113105 53 38 1.0 4.0 0.00 0.08 0.00 85 1018.6
20260506112518 54 36 2.0 4.0 0.00 0.08 0.00 85 1018.6
20260506112014 54 38 1.0 3.0 0.00 0.08 0.00 84 1018.6
20260506111517 54 36 2.0 4.0 0.00 0.08 0.00 84 1018.6